Regional Weather Roundup
Issued by NWS State College, PA

Home | Current Version | Previous Version | Text Only | Print | Product List | Glossary On
Versions: 1 2 3 4 5 6 7 8 9 10 11 12 13 14 15 16 17 18 19 20 21 22 23 24 25 26 27 28 29 30 31 32 33 34 35 36 37 38 39 40 41 42 43 44 45 46 47 48 49 50
000
ASUS41 KCTP 231410
RWRCTP

REGIONAL WEATHER ROUNDUP
NATIONAL WEATHER SERVICE STATE COLLEGE PA
1000 AM EDT TUE APR 23 2024

Note: "fair" indicates few or no clouds below 12,000 feet with no
significant weather and/or obstructions to visibility.

* = STATION THAT DOES NOT REPORT PRECIPITATION /E.G. RAIN...SNOW...ETC/
    THUNDER OR FOG.

PAZ002>004-007>009-013>016-020>023-029>032-231500-
WESTERN PENNSYLVANIA

CITY           SKY/WX    TMP DP  RH WIND       PRES   REMARKS
ERIE           MOSUNNY   60  31  33 S24G33    29.94F
MEADVILLE      MOSUNNY   57  31  37 MISG      29.98F
FRANKLIN       MOSUNNY   56  32  40 SW16G25   30.01F
NEW CASTLE     SUNNY     56  33  42 S9G21     30.02F
BEAVER COUNTY  MOSUNNY   58  29  32 SW15G23   30.04F
BUTLER         MOSUNNY   57  33  40 SW15G23   30.05F
PITTSBURGH INT PTSUNNY   58  30  34 S12       30.05F
PITTSBURGH     SUNNY     56  31  38 S9        30.06F
INDIANA*       SUNNY     55  32  41 SW10      30.10F
LATROBE        SUNNY     55  32  41 S15G24    30.09F
CONNELLSVILLE  NOT AVBL
WASHINGTON CO*   N/A    N/A N/A N/A MISG        N/A
$$

PAZ004>006-010>012-017>019-024>028-033>037-041-042-045-046-049>053-231500-
CENTRAL PENNSYLVANIA

CITY           SKY/WX    TMP DP  RH WIND       PRES   REMARKS
BRADFORD       MOSUNNY   54  24  31 SW12G31   30.01F
ST MARYS       MOSUNNY   54  27  35 SW10G22   30.06F
DUBOIS         SUNNY     56  26  31 SW15G23   30.04F
CLEARFIELD     SUNNY     51  32  48 SW3       30.07F
JOHNSTOWN      SUNNY     52  27  38 S13G22    30.08F
SOMERSET       SUNNY     52  27  37 SW14      30.11S
ALTOONA        SUNNY     57  30  35 SW13      30.10F
STATE COLLEGE  SUNNY     54  32  43 SW6       30.10F
REEDSVILLE     SUNNY     50  34  53 CALM      30.11F
WELLSBORO      MOSUNNY   52  27  37 S14G20    30.04F
WILLIAMSPORT   SUNNY     50  32  50 CALM      30.10F
SELINSGROVE    SUNNY     53  38  56 S3        30.13F
FT INDIANTOWN  MOSUNNY   54  33  45 CALM      30.13F
CAPITAL CITY   SUNNY     56  36  47 CALM      30.15F
HARRISBURG     PTSUNNY   53  37  54 SE3       30.14F
YORK           SUNNY     57  38  48 CALM      30.14F
$$

PAZ038>040-043-044-047-048-054-055-060>062-067>071-231500-
EASTERN PENNSYLVANIA

CITY           SKY/WX    TMP DP  RH WIND       PRES   REMARKS
TOWANDA          N/A     50  30  46 NE3       30.11F
SCRANTON       SUNNY     57  28  33 W5        30.11F
MOUNT POCONO   SUNNY     54  23  30 S9G20     30.12F
HAZLETON       SUNNY     57  27  30 SE6       30.14F
LEHIGHTON      SUNNY     50  32  50 CALM      30.17F
ALLENTOWN      SUNNY     51  36  56 CALM      30.16F
QN CITY/ALNTWN SUNNY     54  37  54 CALM      30.17F
QUAKERTOWN*    SUNNY     55  39  54 CALM      30.16F
PERKASIE*      SUNNY     54  41  62 VRB5      30.17F
DOYLESTOWN     SUNNY     55  40  56 S7        30.16F
READING        SUNNY     54  38  54 VRB3      30.15F
LANCASTER      MOSUNNY   55  41  59 CALM      30.15F
COATESVILLE    MOSUNNY   55  41  58 VRB3      30.17F
WEST CHESTER   SUNNY     55  41  58 CALM      30.17F
POTTSTOWN      SUNNY     53  40  61 VRB3      30.18F
BLUE BELL      SUNNY     56  41  57 S5        30.17F
NORTH PHILA    SUNNY     56  40  55 SW6       30.19F
PHILADELPHIA   PTSUNNY   56  41  57 SW9       30.18F
$$



USA.gov is the U.S. government's official web portal to all federal, state and local government web resources and services.